PBD174 UUEE-USSS

Flight info

Callsign PBD174
Flight time 1h 43m
Altitude 37000
Route OLMUN3J OLMUN DCT EKPIR M864 INKEB L94 NAMER T765 GEMKI L94 LOMBI LOMBI6S
Aircraft B738/M-SDE2E3FGHIRWXY/LB1

Departure

Time 2026-05-04 10:39
Airport Sheremetyevo International Airport (UUEE)

Arrival

Time 2026-05-04 12:23
Airport Koltsovo Airport (USSS)
Time Latitude Longitude Altitude Speed Heading
2026-05-04 10:19 55.96811 37.42127 629 ft 0 kts 100°
2026-05-04 10:34 55.96810 37.42137 629 ft 3 kts 96°
2026-05-04 10:34 55.96821 37.42210 635 ft 9 kts 56°
2026-05-04 10:35 55.96892 37.42227 629 ft 13 kts 346°
2026-05-04 10:35 55.96996 37.42183 631 ft 17 kts
2026-05-04 10:35 55.97048 37.42305 635 ft 15 kts 74°
2026-05-04 10:35 55.97079 37.42513 632 ft 20 kts 75°
2026-05-04 10:36 55.97120 37.42783 633 ft 25 kts 75°
2026-05-04 10:36 55.97168 37.43108 629 ft 29 kts 75°
2026-05-04 10:36 55.97224 37.43480 631 ft 33 kts 75°
2026-05-04 10:36 55.97286 37.43899 634 ft 37 kts 75°
2026-05-04 10:37 55.97359 37.44339 636 ft 33 kts 55°
2026-05-04 10:37 55.97448 37.44410 633 ft 0 kts 352°
2026-05-04 10:39 55.97166 37.41681 663 ft 178 kts 254°
2026-05-04 10:39 55.96857 37.39425 1523 ft 189 kts 257°
2026-05-04 10:39 55.96559 37.37234 2883 ft 175 kts 256°
2026-05-04 10:40 55.96244 37.35130 3921 ft 178 kts 257°
2026-05-04 10:40 55.95898 37.32829 4297 ft 207 kts 256°
2026-05-04 10:40 55.95494 37.30153 4593 ft 238 kts 256°
2026-05-04 10:40 55.95051 37.27246 5411 ft 241 kts 256°
2026-05-04 10:41 55.94606 37.24330 6278 ft 249 kts 257°
2026-05-04 10:41 55.94146 37.21313 7046 ft 255 kts 257°
2026-05-04 10:41 55.93677 37.18240 7917 ft 258 kts 257°
2026-05-04 10:41 55.93202 37.15125 8755 ft 262 kts 257°
2026-05-04 10:42 55.92715 37.11952 9518 ft 268 kts 257°
2026-05-04 10:42 55.92222 37.08742 9852 ft 270 kts 257°
2026-05-04 10:42 55.91738 37.05489 9872 ft 271 kts 262°
2026-05-04 10:42 55.91804 37.02205 9893 ft 266 kts 287°
2026-05-04 10:43 55.92638 36.99302 9889 ft 263 kts 308°
2026-05-04 10:44 55.99485 37.08731 9892 ft 281 kts 119°
2026-05-04 10:45 55.98290 37.11436 9891 ft 277 kts 143°
2026-05-04 10:45 55.96655 37.13236 9910 ft 284 kts 151°
2026-05-04 10:45 55.95183 37.15966 9835 ft 326 kts 120°
2026-05-04 10:45 55.94611 37.19866 9836 ft 325 kts 87°
2026-05-04 10:46 55.95029 37.23741 9857 ft 313 kts 71°
2026-05-04 10:46 55.95499 37.27550 9851 ft 324 kts 80°
2026-05-04 10:46 55.95659 37.31574 9844 ft 323 kts 89°
2026-05-04 10:46 55.95559 37.35538 9831 ft 316 kts 94°
2026-05-04 10:47 55.95344 37.39407 9776 ft 312 kts 91°
2026-05-04 10:47 55.95253 37.43230 9808 ft 305 kts 97°
2026-05-04 10:47 55.94825 37.46956 9835 ft 309 kts 103°
2026-05-04 10:47 55.94341 37.50731 9839 ft 314 kts 102°
2026-05-04 10:49 55.90644 37.77990 14829 ft 328 kts 120°
2026-05-04 10:49 55.89486 37.81554 14890 ft 338 kts 120°
2026-05-04 10:50 55.88301 37.85171 14906 ft 337 kts 120°
2026-05-04 10:51 55.80703 38.09168 14904 ft 333 kts 119°
2026-05-04 10:52 55.79752 38.12921 14847 ft 336 kts 101°
2026-05-04 10:52 55.79598 38.17171 15131 ft 352 kts 86°
2026-05-04 10:52 55.79710 38.21542 15789 ft 357 kts 84°
2026-05-04 10:54 55.82167 38.52079 17762 ft 363 kts 69°
2026-05-04 10:54 55.82966 38.56372 18362 ft 368 kts 69°
2026-05-04 10:56 55.89895 38.87494 19360 ft 423 kts 61°
2026-05-04 10:56 55.91194 38.92233 19733 ft 428 kts 62°
2026-05-04 10:56 55.92483 38.97040 20229 ft 430 kts 62°
2026-05-04 10:57 55.93761 39.01870 20734 ft 430 kts 62°
2026-05-04 10:57 55.95034 39.06705 21172 ft 433 kts 62°
2026-05-04 10:57 55.96317 39.11581 21581 ft 435 kts 62°
2026-05-04 10:57 55.97608 39.16481 21980 ft 437 kts 62°
2026-05-04 10:58 55.98910 39.21401 22368 ft 439 kts 61°
2026-05-04 10:58 56.00219 39.26350 22769 ft 440 kts 62°
2026-05-04 10:58 56.01525 39.31301 23162 ft 442 kts 62°
2026-05-04 10:58 56.02837 39.36285 23469 ft 445 kts 62°
2026-05-04 10:59 56.04157 39.41315 23737 ft 447 kts 62°
2026-05-04 10:59 56.05477 39.46357 24030 ft 448 kts 61°
2026-05-04 10:59 56.06600 39.51580 24223 ft 457 kts 73°
2026-05-04 10:59 56.06906 39.57284 24448 ft 465 kts 91°
2026-05-04 11:00 56.06329 39.62989 24801 ft 469 kts 107°
2026-05-04 11:01 56.03208 40.02905 26315 ft 472 kts 85°
2026-05-04 11:02 56.03308 40.08782 26536 ft 473 kts 85°
2026-05-04 11:02 56.03392 40.14656 26788 ft 472 kts 85°
2026-05-04 11:05 56.04144 40.98254 29020 ft 481 kts 86°
2026-05-04 11:06 56.04174 41.04240 29181 ft 481 kts 86°
2026-05-04 11:06 56.04201 41.10222 29338 ft 481 kts 86°
2026-05-04 11:06 56.04226 41.16212 29527 ft 481 kts 86°
2026-05-04 11:06 56.04247 41.22179 29745 ft 480 kts 85°
2026-05-04 11:08 56.04320 41.64101 30571 ft 483 kts 86°
2026-05-04 11:10 56.04249 42.06006 31681 ft 480 kts 86°
2026-05-04 11:12 56.04038 42.48009 32667 ft 481 kts 87°
2026-05-04 11:12 56.03997 42.54003 32769 ft 481 kts 87°
2026-05-04 11:12 56.03941 42.59980 32942 ft 481 kts 88°
2026-05-04 11:12 56.03872 42.65956 33162 ft 479 kts 88°
2026-05-04 11:13 56.03798 42.71909 33340 ft 478 kts 88°
2026-05-04 11:13 56.03721 42.77862 33464 ft 479 kts 88°
2026-05-04 11:13 56.03644 42.83821 33572 ft 480 kts 88°
2026-05-04 11:13 56.03564 42.89788 33735 ft 479 kts 88°
2026-05-04 11:14 56.03483 42.95710 33921 ft 479 kts 88°
2026-05-04 11:14 56.03399 43.01714 33944 ft 482 kts 88°
2026-05-04 11:16 56.03834 43.49357 34967 ft 473 kts 79°
2026-05-04 11:16 56.04716 43.61052 35056 ft 477 kts 79°
2026-05-04 11:17 56.05540 43.72847 35273 ft 477 kts 80°
2026-05-04 11:19 56.08195 44.14240 35934 ft 477 kts 81°
2026-05-04 11:19 56.08564 44.20154 35989 ft 478 kts 81°
2026-05-04 11:19 56.09294 44.32001 36185 ft 478 kts 81°
2026-05-04 11:20 56.09653 44.37912 36295 ft 477 kts 81°
2026-05-04 11:20 56.10010 44.43821 36375 ft 478 kts 81°
2026-05-04 11:20 56.10720 44.55700 36417 ft 481 kts 81°
2026-05-04 11:22 56.10668 44.97581 36880 ft 482 kts 90°
2026-05-04 11:22 56.10586 45.01644 36873 ft 483 kts 90°
2026-05-04 11:23 56.10319 45.13659 36871 ft 483 kts 90°
2026-05-04 11:25 56.09247 45.55677 36867 ft 482 kts 91°
2026-05-04 11:25 56.08921 45.67670 36876 ft 482 kts 91°
2026-05-04 11:27 56.07309 46.21530 36882 ft 482 kts 92°
2026-05-04 11:28 56.06918 46.33521 36874 ft 482 kts 92°
2026-05-04 11:28 56.06514 46.45585 36879 ft 482 kts 92°
2026-05-04 11:29 56.06254 46.57554 36866 ft 481 kts 88°
2026-05-04 11:29 56.06393 46.69510 36882 ft 481 kts 87°
2026-05-04 11:33 56.07036 47.53342 36887 ft 481 kts 89°
2026-05-04 11:33 56.07068 47.65313 36903 ft 481 kts 89°
2026-05-04 11:34 56.07090 47.77305 36881 ft 482 kts 89°
2026-05-04 11:34 56.07101 47.89300 36889 ft 482 kts 89°
2026-05-04 11:35 56.07098 48.01293 36866 ft 482 kts 89°
2026-05-04 11:35 56.07084 48.13282 36881 ft 482 kts 89°
2026-05-04 11:36 56.07059 48.25269 36884 ft 482 kts 89°
2026-05-04 11:36 56.07023 48.37271 36879 ft 482 kts 89°
2026-05-04 11:37 56.06976 48.49265 36880 ft 482 kts 90°
2026-05-04 11:37 56.06918 48.61261 36874 ft 482 kts 90°
2026-05-04 11:38 56.06847 48.73264 36884 ft 482 kts 90°
2026-05-04 11:38 56.06765 48.85270 36882 ft 483 kts 90°
2026-05-04 11:39 56.06671 48.97286 36882 ft 482 kts 90°
2026-05-04 11:41 56.06250 49.39371 36884 ft 482 kts 90°
2026-05-04 11:41 56.06104 49.51360 36886 ft 482 kts 91°
2026-05-04 11:42 56.05946 49.63335 36890 ft 482 kts 91°
2026-05-04 11:42 56.05779 49.75321 36884 ft 481 kts 91°
2026-05-04 11:43 56.05601 49.87288 36887 ft 481 kts 91°
2026-05-04 11:43 56.05417 49.99248 36891 ft 481 kts 91°
2026-05-04 11:44 56.05224 50.11210 36886 ft 481 kts 91°
2026-05-04 11:44 56.05019 50.23155 36887 ft 480 kts 91°
2026-05-04 11:45 56.04803 50.35100 36891 ft 480 kts 91°
2026-05-04 11:45 56.04575 50.47027 36884 ft 480 kts 91°
2026-05-04 11:46 56.04336 50.58950 36881 ft 480 kts 92°
2026-05-04 11:46 56.04086 50.70859 36900 ft 479 kts 92°
2026-05-04 11:47 56.03555 50.97515 36868 ft 479 kts 91°
2026-05-04 11:47 56.03950 51.92847 36864 ft 479 kts 90°
2026-05-04 11:48 56.07499 52.87980 36926 ft 477 kts 88°
2026-05-04 11:48 56.09384 53.83493 36909 ft 477 kts 88°
2026-05-04 11:49 56.12812 54.78505 36654 ft 482 kts 78°
2026-05-04 11:49 56.16712 55.10593 36931 ft 475 kts 80°
2026-05-04 11:49 56.17212 55.16471 36852 ft 477 kts 83°
2026-05-04 11:50 56.18006 55.28282 36889 ft 476 kts 83°
2026-05-04 11:50 56.18881 55.40085 36893 ft 477 kts 82°
2026-05-04 11:51 56.19827 55.51882 36887 ft 478 kts 82°
2026-05-04 11:51 56.20763 55.63721 36870 ft 479 kts 82°
2026-05-04 11:52 56.25491 56.25452 36759 ft 483 kts 83°
2026-05-04 11:52 56.28871 56.73318 36907 ft 482 kts 83°
2026-05-04 11:52 56.32154 57.21453 36873 ft 485 kts 84°
2026-05-04 11:53 56.37080 58.00967 35672 ft 454 kts 85°
2026-05-04 11:53 56.37299 58.04811 35113 ft 458 kts 85°
2026-05-04 11:53 56.37732 58.12520 33776 ft 475 kts 85°
2026-05-04 11:53 56.38070 58.18507 32743 ft 483 kts 84°
2026-05-04 11:55 56.40243 58.57773 27475 ft 481 kts 85°
2026-05-04 11:55 56.40562 58.63814 26491 ft 484 kts 85°
2026-05-04 11:56 56.40879 58.69839 25671 ft 482 kts 85°
2026-05-04 11:56 56.41192 58.75831 25107 ft 475 kts 85°
2026-05-04 11:56 56.41498 58.81748 24447 ft 471 kts 85°
2026-05-04 11:56 56.41798 58.87602 23853 ft 466 kts 84°
2026-05-04 11:57 56.42092 58.93407 23190 ft 462 kts 84°
2026-05-04 11:57 56.42382 58.99159 22501 ft 457 kts 84°
2026-05-04 11:57 56.42667 59.04836 21891 ft 451 kts 84°
2026-05-04 11:57 56.42948 59.10542 21260 ft 446 kts 84°
2026-05-04 11:58 56.43235 59.16094 20594 ft 443 kts 84°
2026-05-04 11:58 56.43549 59.21609 19951 ft 440 kts 83°
2026-05-04 11:58 56.43871 59.27075 19385 ft 435 kts 83°
2026-05-04 11:58 56.44189 59.32474 18790 ft 431 kts 83°
2026-05-04 11:59 56.44503 59.37852 18214 ft 428 kts 83°
2026-05-04 11:59 56.44808 59.43179 17548 ft 424 kts 83°
2026-05-04 11:59 56.45106 59.48447 16973 ft 419 kts 83°
2026-05-04 11:59 56.45396 59.53662 16383 ft 414 kts 83°
2026-05-04 12:00 56.45680 59.58807 15830 ft 409 kts 83°
2026-05-04 12:00 56.45959 59.63902 15279 ft 404 kts 83°
2026-05-04 12:00 56.46233 59.68939 14738 ft 400 kts 83°
2026-05-04 12:00 56.46501 59.73920 14207 ft 396 kts 84°
2026-05-04 12:01 56.46765 59.78845 13680 ft 392 kts 84°
2026-05-04 12:01 56.47024 59.83736 13074 ft 389 kts 83°
2026-05-04 12:02 56.48481 60.11857 10548 ft 348 kts 84°
2026-05-04 12:03 56.48700 60.16206 10394 ft 336 kts 84°
2026-05-04 12:03 56.48905 60.20296 10257 ft 326 kts 84°
2026-05-04 12:03 56.49108 60.24363 10113 ft 316 kts 84°
2026-05-04 12:03 56.49301 60.28267 9982 ft 306 kts 84°
2026-05-04 12:04 56.49488 60.32046 9853 ft 298 kts 84°
2026-05-04 12:04 56.49670 60.35749 9610 ft 294 kts 84°
2026-05-04 12:04 56.49849 60.39433 9305 ft 293 kts 84°
2026-05-04 12:04 56.50024 60.43079 9035 ft 290 kts 84°
2026-05-04 12:05 56.50197 60.46712 8715 ft 289 kts 84°
2026-05-04 12:05 56.50369 60.50331 8430 ft 287 kts 84°
2026-05-04 12:05 56.50538 60.53919 8140 ft 286 kts 84°
2026-05-04 12:05 56.50705 60.57487 7860 ft 284 kts 84°
2026-05-04 12:06 56.50871 60.61030 7594 ft 282 kts 84°
2026-05-04 12:06 56.51035 60.64562 7333 ft 281 kts 84°
2026-05-04 12:06 56.51196 60.68072 7145 ft 277 kts 84°
2026-05-04 12:06 56.51352 60.71494 7039 ft 269 kts 84°
2026-05-04 12:07 56.51410 60.74836 6870 ft 263 kts 99°
2026-05-04 12:07 56.50688 60.77764 6807 ft 250 kts 132°
2026-05-04 12:07 56.49389 60.79724 6826 ft 241 kts 155°
2026-05-04 12:07 56.47831 60.80912 6876 ft 246 kts 163°
2026-05-04 12:08 56.46191 60.81951 6874 ft 252 kts 163°
2026-05-04 12:08 56.44532 60.82999 6868 ft 253 kts 163°
2026-05-04 12:08 56.42878 60.84081 6842 ft 253 kts 159°
2026-05-04 12:08 56.41486 60.86013 6782 ft 255 kts 130°
2026-05-04 12:09 56.40394 60.88487 6833 ft 250 kts 131°
2026-05-04 12:09 56.39279 60.90941 6810 ft 247 kts 131°
2026-05-04 12:09 56.38217 60.93261 6820 ft 231 kts 132°
2026-05-04 12:09 56.37229 60.95410 6804 ft 216 kts 132°
2026-05-04 12:10 56.36281 60.97480 6804 ft 213 kts 129°
2026-05-04 12:10 56.35726 60.99938 6778 ft 214 kts 97°
2026-05-04 12:10 56.35532 61.02592 6828 ft 215 kts 99°
2026-05-04 12:10 56.35294 61.05267 6823 ft 214 kts 99°
2026-05-04 12:11 56.35057 61.07866 6816 ft 206 kts 99°
2026-05-04 12:11 56.34827 61.10382 6804 ft 202 kts 99°
2026-05-04 12:11 56.34838 61.12874 6755 ft 200 kts 67°
2026-05-04 12:11 56.35662 61.14772 6727 ft 193 kts 27°
2026-05-04 12:12 56.36920 61.15431 6671 ft 189 kts 356°
2026-05-04 12:12 56.38270 61.15289 6560 ft 201 kts 350°
2026-05-04 12:12 56.39677 61.15016 6382 ft 206 kts 349°
2026-05-04 12:12 56.41111 61.14729 6229 ft 207 kts 349°
2026-05-04 12:13 56.42575 61.14436 6074 ft 221 kts 349°
2026-05-04 12:14 56.53874 61.12372 4907 ft 232 kts 355°
2026-05-04 12:15 56.55471 61.12381 4760 ft 225 kts 357°
2026-05-04 12:15 56.56994 61.12421 4585 ft 214 kts 356°
2026-05-04 12:15 56.58448 61.12450 4416 ft 204 kts 356°
2026-05-04 12:15 56.59853 61.12468 4304 ft 196 kts 356°
2026-05-04 12:16 56.61194 61.12481 4309 ft 193 kts 356°
2026-05-04 12:16 56.62535 61.12491 4141 ft 192 kts 356°
2026-05-04 12:16 56.63838 61.12502 4018 ft 182 kts 356°
2026-05-04 12:16 56.65063 61.12512 3909 ft 171 kts 356°
2026-05-04 12:17 56.66218 61.12520 3756 ft 162 kts 356°
2026-05-04 12:17 56.67327 61.12526 3571 ft 157 kts 356°
2026-05-04 12:17 56.68416 61.12531 3396 ft 169 kts 356°
2026-05-04 12:17 56.69765 61.12525 3535 ft 209 kts 357°
2026-05-04 12:18 56.71215 61.12438 3550 ft 203 kts 345°
2026-05-04 12:18 56.72325 61.11215 3504 ft 180 kts 305°
2026-05-04 12:18 56.72825 61.09316 3524 ft 154 kts 284°
2026-05-04 12:18 56.72964 61.07517 3459 ft 134 kts 276°
2026-05-04 12:19 56.73051 61.05772 3273 ft 139 kts 276°
2026-05-04 12:19 56.73135 61.04051 3098 ft 135 kts 276°
2026-05-04 12:19 56.73217 61.02357 2921 ft 134 kts 275°
2026-05-04 12:19 56.73301 61.00649 2756 ft 137 kts 275°
2026-05-04 12:20 56.73385 60.98926 2549 ft 136 kts 275°
2026-05-04 12:20 56.73469 60.97205 2391 ft 139 kts 276°
2026-05-04 12:20 56.73556 60.95441 2189 ft 139 kts 276°
2026-05-04 12:20 56.73641 60.93704 2021 ft 137 kts 276°
2026-05-04 12:21 56.73685 60.91954 1876 ft 139 kts 272°
2026-05-04 12:21 56.73744 60.90200 1677 ft 139 kts 273°
2026-05-04 12:21 56.73802 60.88452 1441 ft 137 kts 274°
2026-05-04 12:21 56.73866 60.86752 1273 ft 133 kts 276°
2026-05-04 12:22 56.73943 60.85040 1131 ft 137 kts 274°
2026-05-04 12:22 56.74008 60.83308 937 ft 138 kts 275°
2026-05-04 12:22 56.74079 60.81579 767 ft 134 kts 275°
2026-05-04 12:22 56.74143 60.80088 750 ft 95 kts 274°
2026-05-04 12:23 56.74177 60.79256 751 ft 31 kts 274°
2026-05-04 12:23 56.74251 60.79099 746 ft 16 kts 12°
2026-05-04 12:23 56.74337 60.79127 749 ft 0 kts
2026-05-04 12:24 56.73737 60.90419 1715 ft 139 kts 273°